Time,TemperatureF,DewpointF,PressureIn,WindDirection,WindDirectionDegrees,WindSpeedMPH,WindSpeedGustMPH,Humidity,HourlyPrecipIn,Conditions,Clouds,dailyrainin,SoftwareType,DateUTC
2013-09-16 00:43:00,53.0,-99.9,-100.00,West,271,-999.0,-999.0,-999,0.00,,,-99.99,,2013-09-16 04:43:00,
2013-09-16 00:52:00,52.0,-99.9,-100.00,West,271,-999.0,-999.0,-999,0.00,,,-99.99,,2013-09-16 04:52:00,
2013-09-16 01:44:00,52.0,-99.9,-100.00,West,271,-999.0,-999.0,-999,0.00,,,-99.99,,2013-09-16 05:44:00,
2013-09-16 01:52:00,51.0,-99.9,-100.00,West,271,-999.0,-999.0,-999,0.00,,,-99.99,,2013-09-16 05:52:00,
2013-09-16 02:43:00,51.0,-99.9,-100.00,West,271,-999.0,-999.0,-999,0.00,,,-99.99,,2013-09-16 06:43:00,
2013-09-16 02:52:00,52.0,-99.9,-100.00,West,271,-999.0,-999.0,-999,0.00,,,-99.99,,2013-09-16 06:52:00,
2013-09-16 03:43:00,52.0,-99.9,-100.00,West,271,-999.0,-999.0,-999,0.00,,,-99.99,,2013-09-16 07:43:00,
2013-09-16 03:52:00,53.0,-99.9,-100.00,West,271,-999.0,-999.0,-999,0.00,,,-99.99,,2013-09-16 07:52:00,
2013-09-16 04:42:00,53.0,-99.9,-100.00,West,271,-999.0,-999.0,-999,0.00,,,-99.99,,2013-09-16 08:42:00,
2013-09-16 04:52:00,53.0,-99.9,-100.00,West,271,-999.0,-999.0,-999,0.00,,,-99.99,,2013-09-16 08:52:00,
2013-09-16 05:43:00,53.0,-99.9,-100.00,West,271,-999.0,-999.0,-999,0.00,,,-99.99,,2013-09-16 09:43:00,
2013-09-16 05:52:00,54.0,-99.9,-100.00,West,271,-999.0,-999.0,-999,0.00,,,-99.99,,2013-09-16 09:52:00,
2013-09-16 06:42:00,54.0,-99.9,-100.00,West,271,-999.0,-999.0,-999,0.00,,,-99.99,,2013-09-16 10:42:00,
2013-09-16 06:52:00,54.0,-99.9,-100.00,West,271,-999.0,-999.0,-999,0.01,,,-99.99,,2013-09-16 10:52:00,
2013-09-16 07:42:00,54.0,-99.9,-100.00,West,271,-999.0,-999.0,-999,0.01,,,-99.99,,2013-09-16 11:42:00,
2013-09-16 07:52:00,55.0,-99.9,-100.00,West,271,-999.0,-999.0,-999,0.04,,,-99.99,,2013-09-16 11:52:00,
2013-09-16 08:42:00,55.0,-99.9,-100.00,West,271,-999.0,-999.0,-999,0.04,,,-99.99,,2013-09-16 12:42:00,
2013-09-16 08:52:00,56.0,-99.9,-100.00,West,271,-999.0,-999.0,-999,0.00,,,-99.99,,2013-09-16 12:52:00,
2013-09-16 09:42:00,56.0,-99.9,-100.00,West,271,-999.0,-999.0,-999,0.00,,,-99.99,,2013-09-16 13:42:00,
2013-09-16 09:52:00,57.0,-99.9,-100.00,West,271,-999.0,-999.0,-999,0.00,,,-99.99,,2013-09-16 13:52:00,
2013-09-16 10:42:00,57.0,-99.9,-100.00,West,271,-999.0,-999.0,-999,0.00,,,-99.99,,2013-09-16 14:42:00,
2013-09-16 10:52:00,60.0,-99.9,-100.00,West,271,-999.0,-999.0,-999,0.00,,,-99.99,,2013-09-16 14:52:00,
2013-09-16 11:43:00,60.0,-99.9,-100.00,West,271,-999.0,-999.0,-999,0.00,,,-99.99,,2013-09-16 15:43:00,
2013-09-16 12:52:00,71.0,-99.9,-100.00,NNE,16,3.0,10.0,-999,0.00,,,-99.99,,2013-09-16 16:52:00,
2013-09-16 13:43:00,71.0,-99.9,-100.00,NNE,16,3.0,10.0,-999,0.00,,,-99.99,,2013-09-16 17:43:00,
2013-09-16 13:52:00,69.0,-99.9,-100.00,ENE,62,3.0,5.0,-999,0.00,,,-99.99,,2013-09-16 17:52:00,
2013-09-16 14:42:00,69.0,-99.9,-100.00,ENE,62,3.0,5.0,-999,0.00,,,-99.99,,2013-09-16 18:42:00,
2013-09-16 14:52:00,66.0,-99.9,-100.00,NE,49,-999.0,-999.0,-999,0.00,,,-99.99,,2013-09-16 18:52:00,
2013-09-16 15:42:00,66.0,-99.9,-100.00,NE,49,-999.0,-999.0,-999,0.00,,,-99.99,,2013-09-16 19:42:00,
2013-09-16 15:52:00,65.0,-99.9,-100.00,SW,233,-999.0,7.0,-999,0.00,,,-99.99,,2013-09-16 19:52:00,
2013-09-16 16:43:00,65.0,-99.9,-100.00,SW,233,-999.0,7.0,-999,0.00,,,-99.99,,2013-09-16 20:43:00,
2013-09-16 16:52:00,64.0,-99.9,-100.00,SSW,209,-999.0,6.0,-999,0.00,,,-99.99,,2013-09-16 20:52:00,
2013-09-16 17:44:00,64.0,-99.9,-100.00,SSW,209,-999.0,6.0,-999,0.00,,,-99.99,,2013-09-16 21:44:00,
2013-09-16 17:52:00,62.0,-99.9,-100.00,North,-999,-999.0,-999.0,-999,0.00,,,-99.99,,2013-09-16 21:52:00,
2013-09-16 18:43:00,62.0,-99.9,-100.00,North,-999,-999.0,-999.0,-999,0.00,,,-99.99,,2013-09-16 22:43:00,
2013-09-16 18:52:00,60.0,-99.9,-100.00,South,188,-999.0,-999.0,-999,0.00,,,-99.99,,2013-09-16 22:52:00,
2013-09-16 19:43:00,60.0,-99.9,-100.00,South,188,-999.0,-999.0,-999,0.00,,,-99.99,,2013-09-16 23:43:00,
2013-09-16 20:52:00,55.0,-99.9,-100.00,South,188,-999.0,-999.0,-999,0.00,,,-99.99,,2013-09-17 00:52:00,
2013-09-16 21:42:00,55.0,-99.9,-100.00,South,188,-999.0,-999.0,-999,0.00,,,-99.99,,2013-09-17 01:42:00,
2013-09-16 21:52:00,53.0,-99.9,-100.00,ENE,70,3.0,8.0,-999,0.00,,,-99.99,,2013-09-17 01:52:00,
2013-09-16 22:42:00,53.0,-99.9,-100.00,ENE,70,3.0,8.0,-999,0.00,,,-99.99,,2013-09-17 02:42:00,
2013-09-16 22:52:00,53.0,-99.9,-100.00,WSW,258,-999.0,4.0,-999,0.00,,,-99.99,,2013-09-17 02:52:00,
2013-09-16 23:45:00,53.0,-99.9,-100.00,WSW,258,-999.0,4.0,-999,0.00,,,-99.99,,2013-09-17 03:45:00,
2013-09-16 23:52:00,50.0,-99.9,-100.00,NNW,345,-999.0,-999.0,-999,0.00,,,-99.99,,2013-09-17 03:52:00,